Location: Berlin
(52.5171°N, 13.3759°E)
Time: 14:33:23
(UTC+01:00)

ISS - Pass Details

Date: 06 January 2018
Orbit: 402 x 406 km, 51.6° (Epoch: 16 January)

Event Time Altitude Azimuth Distance (km) Brightness Sun altitude
Exits shadow 06:48:15 20° 270° (W) 995 -2.4 -12.5°
Maximum altitude 06:50:21 71° 189° (S) 434 -3.7 -12.2°
Drops below altitude 10° 06:53:37 10° 105° (ESE) 1,468 0.5 -11.7°
Sets 06:55:42 0° 103° (ESE) 2,328 2.0 -11.4°
